Simultaneous Nadir Overpasses (SNOs) Predictions

Prediction of SNOs between METOP-A and NOAA-19 Satellite Orbit:

Table of predicted SNOs for the next 14.0 days since TLE Epoch: 4/4/2015
Index Date (METOP-A) Time (METOP-A) Lat,Lon (METOP-A) SZA (METOP-A ) Date (NOAA-19) Time (NOAA-19) Lat,Lon (NOAA-19) SZA (NOAA-19 ) Distance(km) Time Diff (sec)
1 04/04/2015 11:34:14 74.73, 2.83 69.02 04/04/2015 11:34:45 74.73, 2.90 69.02 1.89 31
2 04/04/2015 12:24:56 -74.73, 170.16 111.00 04/04/2015 12:25:50 -74.72, 170.15 111.01 1.54 54
3 04/04/2015 13:15:36 74.71, -22.57 68.97 04/04/2015 13:16:47 74.69, -22.50 68.95 2.83 71
4 04/14/2015 17:21:49 -74.95, 96.51 114.59 04/14/2015 17:20:35 -74.94, 95.99 114.58 15.06 74
5 04/14/2015 18:12:31 74.82, -96.51 65.28 04/14/2015 18:11:29 74.82, -96.39 65.28 3.56 62
6 04/14/2015 19:03:13 -74.83, 70.84 114.73 04/14/2015 19:02:35 -74.81, 70.86 114.74 2.32 38
7 04/14/2015 19:53:53 74.80,-121.92 65.24 04/14/2015 19:53:32 74.83,-121.93 65.27 3.39 21
8 04/14/2015 20:44:35 -74.81, 45.43 114.77 04/14/2015 20:44:38 -74.82, 45.32 114.76 3.52 3
9 04/14/2015 21:35:15 74.78,-147.32 65.19 04/14/2015 21:35:34 74.79,-147.33 65.20 1.79 19
10 04/14/2015 22:25:57 -74.79, 20.03 114.82 04/14/2015 22:26:40 -74.78, 19.92 114.82 3.23 43
11 04/14/2015 23:16:37 74.75,-172.72 65.14 04/14/2015 23:17:36 74.76,-172.73 65.14 0.37 59
12 04/15/2015 00:07:26 -74.42, -6.28 115.19 04/15/2015 00:08:36 -74.46, -4.69 115.19 47.65 70




NCC Satellite Simultaneous Nadir Overpasses (SNOs) Prediction Service
